Location: Winthrop
(48.4780°N, 120.1850°W)
Time: 22:59:45
(UTC-07:00)

S-56A Canister/Altair - Pass Details

Date: 08 June 2023
Orbit: 640 x 2489 km, 38.9° (Epoch: 29 September)

Event Time Altitude Azimuth Distance (km) Brightness Sun altitude
Rises 21:26:06 0° 243° (WSW) 5,105 12.0 -4.1°
Reaches altitude 10° 21:29:12 10° 238° (WSW) 4,329 11.6 -4.5°
Maximum altitude 21:41:07 54° 166° (SSE) 2,721 10.0 -5.9°
Drops below altitude 10° 21:55:29 10° 96° (E) 5,143 11.3 -7.6°
Sets 21:59:32 0° 93° (E) 6,100 11.7 -8.0°
